This is the latest recevied weather packets stored in our database for station/object HS1AXC-1. If no packets are shown the sender has not sent any weather packets the latest 10 day(s).
| Time | Temp. | Humidity | Pressure | Rain* | Wind** | Luminosity | Snow |
|---|---|---|---|---|---|---|---|
| 1788060567 | 33.89° C | 76% | 1009 hPa | - | - | 1 W/m² | - |
| 1788059945 | 33.89° C | 77% | 1010 hPa | - | - | 1 W/m² | - |
| 1788059323 | 33.33° C | 77% | 1010 hPa | - | - | 1 W/m² | - |
| 1788058701 | 33.33° C | 77% | 1010 hPa | - | - | 1 W/m² | - |
| 1788058079 | 33.33° C | 80% | 1010 hPa | - | - | 1 W/m² | - |
| 1788057457 | 33.33° C | 80% | 1009 hPa | - | - | 1 W/m² | - |
| 1788056835 | 33.33° C | 79% | 1009 hPa | - | - | 1 W/m² | - |
| 1788056213 | 33.33° C | 80% | 1009 hPa | - | - | 1 W/m² | - |
| 1788055873 | 33.33° C | 82% | 1009 hPa | - | - | 1 W/m² | - |
| 1788055251 | 33.33° C | 83% | 1009 hPa | - | - | 1 W/m² | - |
| 1788054629 | 32.78° C | 86% | 1009 hPa | - | - | 1 W/m² | - |
| 1788054007 | 33.33° C | 85% | 1009 hPa | - | - | 1 W/m² | - |
| 1788053385 | 33.33° C | 87% | 1009 hPa | - | - | 1 W/m² | - |
| 1788052762 | 32.22° C | 88% | 1009 hPa | - | - | 1 W/m² | - |
| 1788052140 | 32.22° C | 93% | 1009 hPa | - | - | 1 W/m² | - |
| 1788051518 | 32.22° C | 95% | 1009 hPa | - | - | 1 W/m² | - |
| 1788050778 | 32.22° C | 99% | 1009 hPa | - | - | 1 W/m² | - |
| 1788050156 | 31.67° C | 99% | 1009 hPa | - | - | 1 W/m² | - |
| 1788049534 | 31.67° C | 99% | 1008 hPa | - | - | 0 W/m² | - |
| 1788048912 | 31.67° C | 99% | 1009 hPa | - | - | 0 W/m² | - |
| 1788048290 | 31.67° C | 99% | 1008 hPa | - | - | 0 W/m² | - |
| 1788047668 | 31.11° C | 99% | 1008 hPa | - | - | 0 W/m² | - |
| 1788047046 | 31.11° C | 99% | 1008 hPa | - | - | 0 W/m² | - |
| 1788046210 | 30.56° C | 99% | 1008 hPa | - | - | 0 W/m² | - |
| 1788045588 | 30.56° C | 99% | 1008 hPa | - | - | 0 W/m² | - |
* Rain since midnight (hover to see other rain measurements)
** Current wind speed in m/s (hover to see current wind gust speed)